Regional Weather Roundup
Issued by NWS Raleigh/Durham, NC

Home | Current Version | Previous Version | Text Only | Print | Product List | Glossary On
Versions: 1 2 3 4 5 6 7 8 9 10 11 12 13 14 15 16 17 18 19 20 21 22 23 24 25 26 27 28 29 30 31 32 33 34 35 36 37 38 39 40 41 42 43 44 45 46 47 48 49 50
000
ASUS42 KRAH 311010
RWRRAH
NORTH CAROLINA WEATHER ROUNDUP
NATIONAL WEATHER SERVICE RALEIGH NC
500 AM EST SAT JAN 31 2015

NOTE: "FAIR" INDICATES FEW OR NO CLOUDS BELOW 12,000 FEET WITH NO
SIGNIFICANT WEATHER AND/OR OBSTRUCTIONS TO VISIBILITY.

NCZ001-053-055-056-065-067-311100-
WESTERN NORTH CAROLINA

CITY           SKY/WX    TMP DP  RH WIND       PRES   REMARKS
ASHEVILLE      CLEAR     26  10  50 N9        30.29S WCI  17
JEFFERSON      CLEAR     23  -6  27 NW10      30.17S WCI  12
MORGANTON      CLEAR     22  14  71 CALM      30.33S
HICKORY        CLEAR     26  10  50 W6        30.28S WCI  19
RUTHERFORDTON  CLEAR     26  11  52 N3        30.30S
MOUNT AIRY     CLEAR     28   6  39 W5        30.29S WCI  23
BOONE          CLEAR     21   8  56 W15G26    30.20S WCI   7
$$

NCZ021-022-025-041-071-084-088-311100-
CENTRAL NORTH CAROLINA

CITY           SKY/WX    TMP DP  RH WIND       PRES   REMARKS
CHARLOTTE      CLEAR     24  12  60 SW3       30.32R
GREENSBORO     CLEAR     21   8  57 SW5       30.29S WCI  15
WINSTON-SALEM  CLEAR     23   7  50 CALM      30.30S
RALEIGH-DURHAM CLEAR     26   8  46 CALM      30.32S
FORT BRAGG     CLEAR     27   8  43 N6        30.32S WCI  21
FAYETTEVILLE   CLEAR     28   9  44 N9        30.32S WCI  19
BURLINGTON     CLEAR     20  11  68 SW3       30.31S
LAURINBURG     CLEAR     26  11  52 N7        30.33S WCI  18
$$

NCZ011-015-027-028-043-044-047-080-103-311100-
NORTHEASTERN NORTH CAROLINA

CITY           SKY/WX    TMP DP  RH WIND       PRES   REMARKS
ROCKY MT-WILSO CLEAR     27  11  51 NW9       30.32S WCI  18
GREENVILLE     CLEAR     28  12  50 CALM      30.32S
WASHINGTON     CLEAR     27  13  55 NW6       30.31R WCI  20
ELIZABETH CITY CLEAR     25  10  53 NW13      30.28R WCI  14
MANTEO         CLEAR     28   9  43 NW18G30   30.25S WCI  16
CAPE HATTERAS  CLEAR     30  13  49 NW13G26   30.25R WCI  20
$$

NCZ078-087-090-091-093-098-101-311100-
SOUTHEASTERN NORTH CAROLINA

CITY           SKY/WX    TMP DP  RH WIND       PRES   REMARKS
LUMBERTON      CLEAR     29  11  47 N5        30.32S WCI  24
GOLDSBORO      CLEAR     34  12  40 NW12      30.27R WCI  25
KINSTON        CLEAR     28  12  53 NW5       30.33S WCI  22
KENANSVILLE    CLEAR     28  11  49 NW5       30.33S WCI  23
NEW BERN       CLEAR     29  13  51 NW6       30.33R WCI  23
CHERRY POINT   CLEAR     29  12  49 NW10      30.32R WCI  20
BEAUFORT       CLEAR     30  15  53 NW18      30.30R WCI  18
JACKSONVILLE   CLEAR     29  12  49 NW12      30.31S WCI  19
WILMINGTON     CLEAR     30  10  43 N8        30.32R WCI  22
$$




USA.gov is the U.S. government's official web portal to all federal, state and local government web resources and services.